Date String (YYYY-MM-DD hh:mm:ss) UTC,Instrument flags,Ambient pressure (hPa),Sample flow (lpm),Bypass flow (lpm),Sample temperature (°C),Ambient temperature (°C),ASC tube jacket temperature (°C),LED temperature (°C),Box temperature (°C),Sample RH (%),Span deviation,Mass concentration (μg/m³),Mass concentration (μg/m³),Mass concentration (μg/m³)
DateTimeUTC,F1_M11,P_M11,Q1_M11,Q2_M11,T1_M11,T2_M11,T3_M11,T4_M11,T5_M11,U1_M11,ZSPAN_M11,X0_M11,X2_M11,X1_M11
2022-02-09 02:00:00,,0827.8,5.00,0.00,25.0,24.1,00.0,34.1,26.6,04.6,0000.0,0001.14,0000.71,0000.54
2022-02-09 02:01:00,,0827.8,5.01,0.00,25.0,24.0,00.0,34.1,26.6,04.6,0000.0,0001.24,0000.75,0000.54
2022-02-09 02:02:00,,0827.8,4.98,0.00,25.0,24.0,00.0,34.1,26.6,04.8,0000.0,0001.85,0000.77,0000.54
2022-02-09 02:03:00,,0827.8,5.01,0.00,25.0,24.0,00.0,34.1,26.7,04.7,0000.0,0002.32,0000.80,0000.53
2022-02-09 02:04:00,,0827.8,5.00,0.00,25.0,24.0,00.0,34.1,26.7,04.7,0000.0,0002.34,0000.80,0000.54
2022-02-09 02:05:00,,0827.9,5.00,0.00,25.0,24.1,00.0,34.1,26.7,04.7,0000.0,0002.34,0000.81,0000.54
2022-02-09 02:06:00,,0827.9,5.01,0.00,25.0,24.0,00.0,34.1,26.7,04.8,0000.0,0002.30,0000.80,0000.54
2022-02-09 02:07:00,,0827.9,5.00,0.00,25.0,24.0,00.0,34.1,26.7,04.9,0000.0,0002.30,0000.81,0000.54
2022-02-09 02:08:00,,0827.8,4.99,0.00,25.0,24.0,00.0,34.1,26.7,04.9,0000.0,0002.38,0000.83,0000.54
2022-02-09 02:09:00,,0827.9,5.01,0.00,25.0,24.1,00.0,34.1,26.8,04.9,0000.0,0002.38,0000.84,0000.54
2022-02-09 02:10:00,,0828.0,5.01,0.00,25.0,24.1,00.0,34.1,26.8,04.8,0000.0,0002.33,0000.82,0000.54
2022-02-09 02:11:00,,0827.9,4.98,0.00,25.1,24.1,00.0,34.1,26.8,04.8,0000.0,0002.29,0000.81,0000.54
2022-02-09 02:12:00,,0827.9,5.01,0.00,25.1,24.2,00.0,34.1,26.8,04.7,0000.0,0002.16,0000.76,0000.54
2022-02-09 02:13:00,,0827.8,5.00,0.00,25.1,24.2,00.0,34.1,26.9,04.6,0000.0,0001.63,0000.77,0000.54
2022-02-09 02:14:00,,0827.8,4.99,0.00,25.1,24.2,00.0,34.1,26.9,04.5,0000.0,0001.25,0000.78,0000.54
2022-02-09 02:15:00,,0827.8,5.00,0.00,25.1,24.3,00.0,34.1,26.9,04.4,0000.0,0001.13,0000.77,0000.53
2022-02-09 02:16:00,,0827.8,4.99,0.00,25.1,24.2,00.0,34.1,26.9,04.4,0000.0,0001.08,0000.74,0000.53
2022-02-09 02:17:00,,0827.8,5.01,0.00,25.1,24.2,00.0,34.1,26.8,04.3,0000.0,0001.07,0000.74,0000.53
2022-02-09 02:18:00,,0827.7,4.98,0.00,25.0,24.2,00.0,34.1,26.8,04.3,0000.0,0001.09,0000.73,0000.52
2022-02-09 02:19:00,,0827.7,5.01,0.00,25.0,24.2,00.0,34.1,26.8,04.2,0000.0,0001.12,0000.74,0000.52
2022-02-09 02:20:00,,0827.9,4.99,0.00,25.0,24.2,00.0,34.1,26.8,04.2,0000.0,0001.16,0000.75,0000.52
2022-02-09 02:21:00,,0827.8,5.01,0.00,25.0,24.2,00.0,34.1,26.8,04.2,0000.0,0001.21,0000.76,0000.52
2022-02-09 02:22:00,,0827.8,4.98,0.00,25.0,24.2,00.0,34.1,26.8,04.2,0000.0,0001.22,0000.76,0000.52
2022-02-09 02:23:00,,0827.7,5.01,0.00,25.0,24.2,00.0,34.0,26.7,04.2,0000.0,0001.23,0000.77,0000.51
2022-02-09 02:24:00,,0827.7,4.99,0.00,25.0,24.2,00.0,34.0,26.7,04.2,0000.0,0001.19,0000.76,0000.51
2022-02-09 02:25:00,,0827.7,5.00,0.00,25.0,24.2,00.0,34.0,26.7,04.2,0000.0,0001.13,0000.73,0000.51
2022-02-09 02:26:00,,0827.7,5.00,0.00,24.9,24.1,00.0,34.0,26.7,04.2,0000.0,0001.04,0000.70,0000.51
2022-02-09 02:27:00,,0827.7,5.00,0.00,24.9,24.1,00.0,34.0,26.6,04.0,0000.0,0001.06,0000.71,0000.52
2022-02-09 02:28:00,,0827.7,4.99,0.00,24.9,24.0,00.0,34.0,26.6,04.1,0000.0,0001.12,0000.73,0000.52
2022-02-09 02:29:00,,0827.7,5.00,0.00,24.8,24.0,00.0,34.0,26.6,04.2,0000.0,0001.17,0000.72,0000.52
2022-02-09 02:30:00,,0827.7,4.99,0.00,24.8,23.9,00.0,33.9,26.5,04.2,0000.0,0001.26,0000.70,0000.52
2022-02-09 02:31:00,,0827.7,5.00,0.00,24.8,23.9,00.0,33.9,26.5,04.2,0000.0,0001.21,0000.69,0000.52
2022-02-09 02:32:00,,0827.7,5.01,0.00,24.8,23.9,00.0,33.9,26.6,04.2,0000.0,0001.19,0000.69,0000.53
2022-02-09 02:33:00,,0827.6,4.99,0.00,24.8,24.0,00.0,33.9,26.6,04.3,0000.0,0001.20,0000.69,0000.53
2022-02-09 02:34:00,,0827.7,5.01,0.00,24.8,24.0,00.0,33.9,26.6,04.3,0000.0,0001.18,0000.68,0000.53
2022-02-09 02:35:00,,0827.7,5.00,0.00,24.8,24.0,00.0,33.9,26.6,04.3,0000.0,0001.16,0000.67,0000.53
2022-02-09 02:36:00,,0827.6,4.99,0.00,24.8,24.0,00.0,33.9,26.6,04.2,0000.0,0001.15,0000.66,0000.53
2022-02-09 02:37:00,,0827.5,5.02,0.00,24.8,24.0,00.0,33.9,26.6,04.3,0000.0,0001.27,0000.67,0000.53
2022-02-09 02:38:00,,0827.5,4.99,0.00,24.8,24.0,00.0,33.8,26.6,04.3,0000.0,0002.38,0000.68,0000.54
2022-02-09 02:39:00,,0827.5,4.98,0.00,24.8,24.0,00.0,33.8,26.6,04.4,0000.0,0002.33,0000.66,0000.54
2022-02-09 02:40:00,,0827.5,5.02,0.00,24.8,24.0,00.0,33.8,26.5,04.2,0000.0,0002.30,0000.65,0000.54
2022-02-09 02:41:00,,0827.5,4.99,0.00,24.8,24.0,00.0,33.8,26.5,04.3,0000.0,0002.17,0000.67,0000.54
2022-02-09 02:42:00,,0827.4,4.99,0.00,24.8,24.0,00.0,33.8,26.5,04.4,0000.0,0002.15,0000.67,0000.55
2022-02-09 02:43:00,,0827.4,5.02,0.00,24.8,24.0,00.0,33.8,26.5,04.2,0000.0,0002.29,0000.70,0000.55
2022-02-09 02:44:00,,0827.4,5.00,0.00,24.8,23.9,00.0,33.8,26.5,04.3,0000.0,0002.34,0000.72,0000.55
2022-02-09 02:45:00,,0827.5,4.98,0.00,24.8,23.9,00.0,33.8,26.5,04.3,0000.0,0002.38,0000.74,0000.56
2022-02-09 02:46:00,,0827.4,5.01,0.00,24.8,23.9,00.0,33.8,26.5,04.2,0000.0,0002.43,0000.75,0000.56
2022-02-09 02:47:00,,0827.5,4.98,0.00,24.7,23.9,00.0,33.8,26.5,04.3,0000.0,0002.42,0000.76,0000.57
2022-02-09 02:48:00,,0827.5,5.01,0.00,24.7,23.9,00.0,33.8,26.4,04.4,0000.0,0002.41,0000.76,0000.57
2022-02-09 02:49:00,,0827.4,5.00,0.00,24.7,23.8,00.0,33.8,26.4,04.4,0000.0,0001.44,0000.78,0000.57
2022-02-09 02:50:00,,0827.4,4.98,0.00,24.7,23.8,00.0,33.8,26.4,04.5,0000.0,0001.39,0000.81,0000.57
2022-02-09 02:51:00,,0827.4,5.01,0.00,24.7,23.8,00.0,33.7,26.3,04.5,0000.0,0001.41,0000.84,0000.58
2022-02-09 02:52:00,,0827.4,5.00,0.00,24.6,23.8,00.0,33.7,26.4,04.4,0000.0,0001.56,0000.83,0000.58
2022-02-09 02:53:00,,0827.4,5.00,0.00,24.6,23.8,00.0,33.7,26.4,04.5,0000.0,0001.89,0000.83,0000.58
2022-02-09 02:54:00,,0827.3,4.99,0.00,24.6,23.8,00.0,33.7,26.3,04.5,0000.0,0002.89,0000.81,0000.58
2022-02-09 02:55:00,,0827.3,5.02,0.00,24.6,23.8,00.0,33.7,26.3,04.5,0000.0,0002.87,0000.81,0000.59
2022-02-09 02:56:00,,0827.4,4.99,0.00,24.6,23.8,00.0,33.7,26.3,04.5,0000.0,0002.86,0000.79,0000.58
2022-02-09 02:57:00,,0827.3,5.01,0.00,24.6,23.7,00.0,33.7,26.3,04.6,0000.0,0002.86,0000.79,0000.59
2022-02-09 02:58:00,,0827.4,4.98,0.00,24.6,23.7,00.0,33.7,26.2,04.4,0000.0,0002.95,0000.83,0000.60
2022-02-09 02:59:00,,0827.4,5.00,0.00,24.6,23.7,00.0,33.7,26.2,04.6,0000.0,0002.98,0000.85,0000.60
